User: anonymous   Login
Location: Unspecified
(0.0000°N, 0.0000°E)
Time: 15:05:52
(UTC+00:00)
Language:

IDEFIX/ARIANE 42P - Orbit

View from above orbital plane
View from above orbital plane
View from above satellite
View from above satellite

Ground track
Ground track

The orbit data is extracted from the following two-line orbital elements,

1 27422U 02021B   19078.50893035 -.00000024 +00000-0 +68211-5 0  9990
2 27422 098.2907 055.1439 0013035 135.2130 225.0108 14.29268738880035
Epoch (UTC): 19 March 2019 12:12:51
Eccentricity: 0.0013035
inclination: 98.2907°
perigee height: 785 km
apogee height: 803 km
right ascension of ascending node: 55.1439°
argument of perigee: 135.2130°
revolutions per day: 14.29268738
mean anomaly at epoch: 225.0108°
orbit number at epoch: 88003

The dashed part of the orbit path shows where the satellite is in the earth's shadow,  

DLR